Alliance, NE

2:12 PM MST on November 24, 2017 (GMT -0700)
Alliance Municipal

Weather History for KAIA - May, 2013

Change the Weather History Date:

Thursday, May 30, 2013

  Actual Average Record
Temperature  
Mean Temperature 58 °F 60 °F  
Max Temperature 70 °F 75 °F 97 °F (2002)
Min Temperature 45 °F 45 °F 28 °F (1947)
Degree Days  
Heating Degree Days 7 6  
Month to date heating degree days 286 321  
Since 1 July heating degree days 7116 7210  
Cooling Degree Days 0 1  
Month to date cooling degree days 22 5  
Year to date cooling degree days 22 5  
Growing Degree Days 7 (Base 50)    
Moisture  
Dew Point 43 °F    
Average Humidity 66    
Maximum Humidity 93    
Minimum Humidity 39    
Precipitation  
Precipitation T in 0.13 in 1.41 in (1928)
Month to date precipitation 2.26 2.52  
Year to date precipitation 5.08 5.38  
Sea Level Pressure  
Sea Level Pressure 29.52 in    
Wind  
Wind Speed 19 mph (WNW)    
Max Wind Speed 33 mph    
Max Gust Speed 41 mph    
Visibility 10 miles    
Events Rain    
T = Trace of Precipitation, MM = Missing Value Source: NWS Daily Summary

Daily Weather History Graph

Daily Weather History Graph

Search for Another Location

Airport or City:

Trip Planner

Search our weather history database for the weather conditions in past years. The results will help you decide how hot, cold, wet, or windy it might be!

Date:

Astronomy

May. 30, 2013 Rise Set
Actual Time 5:18 AM MDT 8:19 PM MDT
Civil Twilight 4:45 AM MDT 8:52 PM MDT
Nautical Twilight 4:02 AM MDT 9:35 PM MDT
Astronomical Twilight 3:12 AM MDT 10:25 PM MDT
Moon 12:17 AM MDT (5/30) 11:33 AM MDT (5/30)
Length of Visible Light 16h 07m
Length of Day
15h 00m
Waning Gibbous, 61% of the Moon is Illuminated
May 30
Waning Gibbous
May 31
Last Quarter
Jun 8
New
Jun 16
First Quarter
Jun 23
Full

Hourly Weather History & Observations

Time (MDT) Temp. Dew Point Humidity Pressure Visibility Wind Dir Wind Speed Gust Speed Precip Events Conditions
12:53 AM 48.9 °F 46.0 °F 90% 29.48 in 10.0 mi West 8.1 mph - N/A   Scattered Clouds
1:53 AM 46.9 °F 44.1 °F 90% 29.47 in 10.0 mi West 8.1 mph - N/A   Clear
2:53 AM 50.0 °F 45.0 °F 83% 29.44 in 10.0 mi West 13.8 mph - N/A   Clear
3:53 AM 48.9 °F 44.1 °F 83% 29.46 in 10.0 mi West 15.0 mph - N/A   Clear
4:53 AM 46.9 °F 43.0 °F 86% 29.48 in 10.0 mi West 11.5 mph - N/A   Clear
5:53 AM 46.9 °F 44.1 °F 90% 29.51 in 10.0 mi West 10.4 mph - N/A   Clear
6:53 AM 52.0 °F 46.0 °F 80% 29.51 in 10.0 mi West 13.8 mph 21.9 mph N/A   Clear
7:53 AM 55.9 °F 45.0 °F 67% 29.50 in 10.0 mi West 18.4 mph 25.3 mph N/A   Clear
8:53 AM 60.1 °F 44.1 °F 55% 29.49 in 10.0 mi West 19.6 mph 25.3 mph N/A   Clear
9:53 AM 62.1 °F 44.1 °F 52% 29.49 in 10.0 mi West 23.0 mph 32.2 mph N/A   Partly Cloudy
10:53 AM 64.0 °F 44.1 °F 48% 29.48 in 10.0 mi West 21.9 mph 31.1 mph N/A   Overcast
11:53 AM 64.9 °F 41.0 °F 42% 29.48 in 10.0 mi West 25.3 mph 31.1 mph N/A   Mostly Cloudy
12:53 PM 68.0 °F 42.1 °F 39% 29.46 in 10.0 mi West 24.2 mph 28.8 mph N/A   Mostly Cloudy
1:53 PM 64.0 °F 43.0 °F 46% 29.47 in 10.0 mi WNW 23.0 mph 32.2 mph 0.00 in Rain Light Rain
2:53 PM 60.1 °F 44.1 °F 55% 29.49 in 10.0 mi NW 21.9 mph 35.7 mph 0.00 in Rain Light Rain
3:53 PM 64.9 °F 44.1 °F 47% 29.49 in 10.0 mi WNW 24.2 mph 29.9 mph 0.00 in   Mostly Cloudy
4:53 PM 62.1 °F 45.0 °F 53% 29.52 in 10.0 mi WNW 20.7 mph 34.5 mph N/A   Clear
5:53 PM 61.0 °F 46.0 °F 58% 29.54 in 10.0 mi WNW 19.6 mph 24.2 mph N/A   Scattered Clouds
6:53 PM 57.0 °F 44.1 °F 62% 29.57 in 10.0 mi NW 23.0 mph 29.9 mph N/A   Scattered Clouds
7:53 PM 54.0 °F 43.0 °F 66% 29.59 in 10.0 mi NW 20.7 mph 28.8 mph N/A   Overcast
8:53 PM 51.1 °F 41.0 °F 68% 29.62 in 10.0 mi WNW 23.0 mph 32.2 mph N/A   Clear
9:53 PM 50.0 °F 41.0 °F 71% 29.66 in 10.0 mi WNW 21.9 mph 27.6 mph N/A   Clear
10:53 PM 50.0 °F 39.9 °F 68% 29.65 in 10.0 mi WNW 23.0 mph 34.5 mph N/A   Clear
11:53 PM 48.9 °F 39.9 °F 71% 29.67 in 10.0 mi West 16.1 mph 24.2 mph N/A   Clear